Regional Weather Roundup
Issued by NWS

Home | Current Version | Previous Version | Graphics & Text | Print | Product List | Glossary On
Versions: 1 2 3 4 5 6 7 8 9 10 11 12 13 14 15 16 17 18 19 20 21 22 23 24 25 26 27 28 29 30 31 32 33 34 35 36 37 38 39 40 41 42 43 44 45 46 47 48 49 50
000
ASUS43 KLOT 290402
RWRIL

ILLINOIS REGIONAL WEATHER ROUNDUP
NATIONAL WEATHER SERVICE CHICAGO/ROMEOVILLE IL
1100 PM CDT SAT MAR 28 2015

NOTE: "FAIR" INDICATES FEW OR NO CLOUDS BELOW 12,000 FEET WITH NO
SIGNIFICANT WEATHER AND/OR OBSTRUCTIONS TO VISIBILITY.

* THESE STATIONS ARE NOT UNDER NWS QUALITY CONTROL. THEY ALSO MAY NOT
  REPORT WEATHER SUCH AS PRECIPITATION OR FOG.

ILZ001-002-007-009-015-016-024-290500-
NORTHWEST ILLINOIS

CITY           SKY/WX    TMP DP  RH WIND       PRES   REMARKS
MOLINE         PTCLDY    31  15  52 SE9       30.23F WCI  23
STERLING*      CLEAR     30  18  59 S3        30.26R
$$

ILZ003-004-008-010-011-017-018-290500-
NORTH CENTRAL ILLINOIS

CITY           SKY/WX    TMP DP  RH WIND       PRES   REMARKS
ROCKFORD       CLEAR     29  15  56 S10       30.26F WCI  20
FREEPORT*      CLEAR     26  17  69 S8        30.25F WCI  18
$$

ILZ005-006-012>014-019>023-290500-
NORTHEAST ILLINOIS

CITY           SKY/WX    TMP DP  RH WIND       PRES   REMARKS
CHICAGO-OHARE  FAIR      24  13  62 S7        30.27F WCI  16
CHICAGO-MIDWAY CLEAR     29  15  56 SE6       30.29F WCI  23
AURORA         CLEAR     26  13  57 SE8       30.28S WCI  18
LANSING*       CLEAR     23  11  58 SE3       30.30F
WAUKEGAN       FAIR      26  13  57 S7        30.25F WCI  18
DUPAGE AIRPORT CLEAR     25  11  55 S7        30.26F WCI  17
WHEELING       CLEAR     24  11  57 S6        30.28F WCI  17
NORTHERLY ISL    N/A     30  20  66 SE9         N/A  WCI  22
$$

LMZ740>746-290500-
SOUTHERN LAKE MICHIGAN

STATION/POSITION SKY/WX   TEMP    WIND        PRES    VSBY  WAVE
                          AIR SEA DIR/SP/G                  HT/PER
                          (F)     (DEG/KT/KT) (MB)    (MI)  (FT/S)
HARRISON CRIB              29     150/ 10/ 13   N/A
BURNHAM HARBOR             30     130/  7/  8   N/A
CALUMET HARBOR             30     140/  3/  6 1025.0R
BURNS HARBOR               27     140/  1/  6 1027.1R
MICHIGAN CITY              25     120/  4/  5   N/A
$$

ILZ025>027-034>036-040-047-049-050-058-095>099-290500-
WEST-CENTRAL ILLINOIS

CITY           SKY/WX    TMP DP  RH WIND       PRES   REMARKS
QUINCY         CLEAR     33  21  61 SE10      30.23S WCI  25
$$

ILZ028>032-037-038-041>044-048-051>054-059>061-290500-
CENTRAL ILLINOIS

CITY           SKY/WX    TMP DP  RH WIND       PRES   REMARKS
DECATUR        CLEAR     30  18  60 S7        30.31S WCI  23
PEORIA         CLEAR     31  18  58 S7        30.28F WCI  24
LINCOLN*       CLEAR     30  24  77 S3        30.30F
SPRINGFIELD    CLEAR     32  21  64 SE8       30.30S WCI  25
TAYLORVILLE    NOT AVBL
$$

ILZ033-039-045-046-055>057-062-063-290500-
EAST-CENTRAL ILLINOIS

CITY           SKY/WX    TMP DP  RH WIND       PRES   REMARKS
CHAMPAIGN      CLEAR     30  19  63 SE8       30.30F WCI  22
DANVILLE*      CLEAR     26  21  80 CALM      30.30S
MATTOON        CLEAR     30  18  60 S5        30.31S WCI  25
$$

ILZ079-100>102-290500-
SOUTHWEST ILLINOIS

CITY           SKY/WX    TMP DP  RH WIND       PRES   REMARKS
BELLEVILLE     CLEAR     33  22  63 SE5       30.30S WCI  29
CAHOKIA*       CLEAR     35  22  58 SE8       30.30S WCI  29
SPARTA*        CLEAR     34  19  55 SE8       30.31F WCI  27
$$

ILZ064>066-069>071-074>076-080>082-084>086-088>090-092>094-290500-
SOUTH-CENTRAL ILLINOIS

CITY           SKY/WX    TMP DP  RH WIND       PRES   REMARKS
CARBONDALE     CLEAR     32  20  61 E6        30.33R WCI  26
MT. VERNON     CLEAR     28  18  64 CALM      30.33F
SALEM*         CLEAR     34  18  52 SE3       30.33S
$$

ILZ067-068-072-073-078-083-087-091-290500-
SOUTHEAST ILLINOIS

CITY           SKY/WX    TMP DP  RH WIND       PRES   REMARKS
LAWRENCEVILLE  CLEAR     30  20  66 CALM      30.35S
HARRISBURG*    CLEAR     32  22  66 E3        30.35S
ROBINSON*      CLEAR     26  23  87 CALM      30.36S
$$

ABBREVIATIONS USED IN REMARKS
   TC - TEMPERATURE IN CELSIUS
  WCI - WIND CHILL INDEX
   HX - HEAT INDEX
  VSB - VISIBILITY
$$




USA.gov is the U.S. government's official web portal to all federal, state and local government web resources and services.